User: anonymous   Login
Location: Bílinka
(49.3579°N, 14.3767°E)
Time: 21:54:38
(UTC+00:00)
Language:

FENGYUN 1C DEB - Orbit

View from above orbital plane
View from above orbital plane
View from above satellite
View from above satellite

Ground track
Ground track

The orbit data is extracted from the following two-line orbital elements,

1 30352U 99025ABP 24057.06424400  .00000319  00000-0  21739-3 0  9994
2 30352  98.8278  89.7812 0028589   5.1074  21.8734 14.06760005877074
Epoch (UTC): 26 February 2024 01:32:30
Eccentricity: 0.0028589
inclination: 98.8278°
perigee height: 850 km
apogee height: 891 km
right ascension of ascending node: 89.7812°
argument of perigee: 5.1074°
revolutions per day: 14.06760005
mean anomaly at epoch: 21.8734°
orbit number at epoch: 87707

The dashed part of the orbit path shows where the satellite is in the earth's shadow,  

DLR